TimeCDT,TemperatureF,Dew PointF,Humidity,Sea Level PressureIn,VisibilityMPH,Wind Direction,Wind SpeedMPH,Gust SpeedMPH,PrecipitationIn,Events,Conditions,WindDirDegrees,DateUTC
12:53 AM,33.1,24.1,70,30.33,10.0,West,8.1,-,N/A,,Clear,280,2012-10-05 05:53:00
1:53 AM,30.9,23.0,72,30.33,10.0,WNW,8.1,-,N/A,,Clear,290,2012-10-05 06:53:00
2:53 AM,28.4,21.2,74,30.29,10.0,WNW,8.1,-,N/A,,Clear,290,2012-10-05 07:53:00
3:53 AM,28.9,23.0,78,30.32,10.0,WNW,8.1,-,N/A,,Clear,290,2012-10-05 08:53:00
4:53 AM,28.0,21.9,78,30.32,10.0,West,6.9,-,N/A,,Clear,280,2012-10-05 09:53:00
5:53 AM,27.0,21.9,81,30.32,10.0,West,8.1,-,N/A,,Clear,280,2012-10-05 10:53:00
6:53 AM,26.1,21.0,81,30.32,10.0,West,8.1,-,N/A,,Clear,280,2012-10-05 11:53:00
7:53 AM,24.1,19.9,84,30.34,10.0,West,6.9,-,N/A,,Clear,270,2012-10-05 12:53:00
8:53 AM,30.0,21.9,72,30.35,10.0,West,13.8,-,N/A,,Clear,280,2012-10-05 13:53:00
9:53 AM,34.0,21.9,61,30.35,10.0,WNW,13.8,-,N/A,,Clear,290,2012-10-05 14:53:00
10:53 AM,37.9,21.9,53,30.35,10.0,NW,20.7,28.8,N/A,,Clear,320,2012-10-05 15:53:00
11:53 AM,39.9,19.9,45,30.34,10.0,NNW,17.3,-,N/A,,Partly Cloudy,340,2012-10-05 16:53:00
12:53 PM,42.1,21.0,43,30.35,10.0,NNW,15.0,-,N/A,,Clear,330,2012-10-05 17:53:00
1:53 PM,44.1,21.0,40,30.33,10.0,NW,15.0,23.0,N/A,,Clear,320,2012-10-05 18:53:00
2:53 PM,43.0,19.0,38,30.33,10.0,NW,19.6,25.3,N/A,,Clear,320,2012-10-05 19:53:00
3:53 PM,43.0,19.0,38,30.32,10.0,NNW,15.0,25.3,N/A,,Clear,330,2012-10-05 20:53:00
4:53 PM,43.0,19.9,40,30.32,10.0,NW,18.4,26.5,N/A,,Clear,310,2012-10-05 21:53:00
5:53 PM,41.0,21.0,45,30.33,10.0,North,17.3,-,N/A,,Partly Cloudy,350,2012-10-05 22:53:00
6:53 PM,37.0,21.0,52,30.35,10.0,NNW,12.7,-,N/A,,Clear,340,2012-10-05 23:53:00
7:53 PM,36.0,21.0,55,30.38,10.0,NNW,13.8,-,N/A,,Mostly Cloudy,340,2012-10-06 00:53:00
8:53 PM,37.0,21.0,52,30.37,10.0,NW,11.5,-,N/A,,Overcast,320,2012-10-06 01:53:00
9:53 PM,37.9,21.9,53,30.38,10.0,NNW,12.7,-,N/A,,Overcast,330,2012-10-06 02:53:00
10:53 PM,37.9,21.9,53,30.36,10.0,NNW,10.4,-,N/A,,Overcast,330,2012-10-06 03:53:00
11:53 PM,33.1,24.1,70,30.38,10.0,North,8.1,-,N/A,,Scattered Clouds,350,2012-10-06 04:53:00